Location: Wiesbaden
(50.0830°N, 8.2500°E)
Time: 20:52:04
(UTC+02:00)

ISS - Pass Details

Date: 17 July 2019
Orbit: 409 x 418 km, 51.6° (Epoch: 20 July)

Event Time Altitude Azimuth Distance (km) Brightness Sun altitude
Rises 03:53:57 0° 287° (WNW) 2,348 -0.1 -12.1°
Reaches altitude 10° 03:56:04 10° 284° (WNW) 1,483 -1.2 -12.0°
Maximum altitude 03:59:20 59° 204° (SSW) 480 -3.8 -11.7°
Drops below altitude 10° 04:02:36 10° 124° (SE) 1,473 -1.0 -11.4°
Sets 04:04:42 0° 121° (ESE) 2,331 0.1 -11.2°
